Voltar ao catálogo

BLOCK DM-SL R/B

AtivoHEO
NORAD 32952·ROCKET BODY· XX

Lançado May 21, 2008 de Sea Launch Platform

Loading…

Próximas Passagens (próximas 24 horas)

TLE

AtualizadoSource: Space-Track

Época: Sep 14, 2026, 06:45 UTC

1 32952U 08024B   26257.28154502 -.00000174  00000-0  00000-0 0  9997
2 32952   1.0916 349.8321 6526227 163.1676 239.0897  2.14622804143577

Acompanhe BLOCK DM-SL R/B em tempo real com AllMySat

Download on the App Store